Weather History for Rome, GA

Change the Weather History Date:

Sunday, February 17, 2013

  Actual Average Record
Temperature  
Mean Temperature 33 °F 45 °F  
Max Temperature 48 °F 56 °F 72 °F (2011)
Min Temperature 18 °F 33 °F 18 °F (2013)
Degree Days  
Heating Degree Days 32 20  
Month to date heating degree days 372  
Since 1 July heating degree days 2414  
Moisture  
Dew Point 17 °F    
Average Humidity 58    
Maximum Humidity 89    
Minimum Humidity 23    
Precipitation  
Precipitation 0.00 in 0.18 in 1.88 in (1999)
Month to date precipitation 2.78  
Year to date precipitation 7.60  
Snow  
Snow 0.00 in - - ()
Month to date snowfall  
Since 1 July snowfall  
Snow Depth -    
Sea Level Pressure  
Sea Level Pressure 30.25 in    
Wind  
Wind Speed 1 mph (WNW)    
Max Wind Speed 10 mph    
Max Gust Speed -    
Visibility 10 miles    
Events      
T = Trace of Precipitation, MM = Missing Value Source: NWS Daily Summary

Daily Weather History Graph

Daily Weather History Graph

Search for Another Location

Airport:

Trip Planner

Search our weather history database for the weather conditions in past years. The results will help you decide how hot, cold, wet, or windy it might be!

Date:

Astronomy

Feb. 17, 2013 Rise Set
Actual Time 7:23 AM EST 6:26 PM EST
Civil Twilight 6:57 AM EST 6:51 PM EST
Nautical Twilight 6:28 AM EST 7:21 PM EST
Astronomical Twilight 5:59 AM EST 7:50 PM EST
Moon 11:36 AM EST (2/17) 1:01 AM EST (2/17)
Length of Visible Light 11h 54m
Length of Day
11h 02m
Waxing Crescent, 49% of the Moon is Illuminated
Feb 17
Waxing Crescent
Feb 17
First Quarter
Feb 25
Full
Mar 4
Last Quarter
Mar 11
New

Hourly Weather History & Observations

Time (EST) Temp. Windchill Dew Point Humidity Pressure Visibility Wind Dir Wind Speed Gust Speed Precip Events Conditions
12:53 AM 25.0 °F - 19.9 °F 81% 30.20 in 10.0 mi Calm Calm - N/A   Clear
1:53 AM 24.1 °F - 18.0 °F 77% 30.21 in 10.0 mi Calm Calm - N/A   Clear
2:53 AM 23.0 °F - 18.0 °F 81% 30.22 in 10.0 mi Calm Calm - N/A   Clear
3:53 AM 21.9 °F - 17.1 °F 82% 30.22 in 10.0 mi Calm Calm - N/A   Clear
4:53 AM 21.0 °F - 18.0 °F 88% 30.22 in 10.0 mi Calm Calm - N/A   Clear
5:53 AM 19.0 °F - 16.0 °F 88% 30.24 in 10.0 mi Calm Calm - N/A   Clear
6:53 AM 19.0 °F - 16.0 °F 88% 30.26 in 10.0 mi Calm Calm - N/A   Clear
7:53 AM 19.9 °F - 17.1 °F 89% 30.28 in 10.0 mi Calm Calm - N/A   Clear
8:53 AM 28.0 °F - 21.0 °F 75% 30.30 in 10.0 mi Calm Calm - N/A   Clear
9:53 AM 34.0 °F 27.2 °F 14.0 °F 44% 30.31 in 10.0 mi West 8.1 mph - N/A   Clear
10:53 AM 37.0 °F - 12.9 °F 37% 30.31 in 10.0 mi Calm Calm - N/A   Clear
11:53 AM 39.9 °F 35.1 °F 12.0 °F 32% 30.31 in 10.0 mi North 6.9 mph - N/A   Clear
12:53 PM 41.0 °F - 12.0 °F 31% 30.28 in 10.0 mi Calm Calm - N/A   Clear
1:53 PM 44.1 °F 38.6 °F 10.0 °F 25% 30.25 in 10.0 mi West 10.4 mph - N/A   Clear
2:53 PM 46.9 °F - 10.9 °F 23% 30.23 in 10.0 mi Variable 5.8 mph - N/A   Clear
3:53 PM 48.0 °F - 12.0 °F 24% 30.21 in 10.0 mi WSW 5.8 mph - N/A   Clear
4:53 PM 48.0 °F - 15.1 °F 27% 30.22 in 10.0 mi NW 8.1 mph - N/A   Clear
5:53 PM 45.0 °F 41.8 °F 16.0 °F 31% 30.23 in 10.0 mi West 5.8 mph - N/A   Clear
6:53 PM 39.0 °F - 19.0 °F 45% 30.24 in 10.0 mi Calm Calm - N/A   Clear
7:53 PM 35.1 °F - 19.9 °F 54% 30.25 in 10.0 mi Calm Calm - N/A   Clear
8:53 PM 32.0 °F - 21.9 °F 66% 30.26 in 10.0 mi Calm Calm - N/A   Clear
9:53 PM 30.0 °F - 21.9 °F 72% 30.27 in 10.0 mi Calm Calm - N/A   Clear
10:53 PM 28.9 °F - 21.9 °F 75% 30.28 in 10.0 mi Calm Calm - N/A   Clear